Other Public Products
Issued by NWS Grand Forks, ND

Home | Current Version | Previous Version | Graphics & Text | Print | Product List | Glossary On
Versions: 1 2 3 4 5 6 7 8 9 10 11 12 13 14 15 16 17 18 19 20 21 22 23 24 25 26 27 28 29 30 31 32 33 34 35 36 37 38 39 40 41 42 43 44 45 46 47 48 49 50
000
FPUS83 KFGF 240810
OPUFGF
PRAIRIE TO PINES WEATHER ROUNDUP
NATIONAL WEATHER SERVICE EASTERN NORTH DAKOTA/GRAND FORKS ND
300 AM CDT SAT JUN 24 2017

 **SATELLITE DATA USED TO AUGMENT SKY COVER AT AUTOMATED STATIONS**
 *****  WEATHER ACROSS EASTERN NORTH DAKOTA  *****

CITY           SKY/WX    TMP DP  RH WIND       PRES   REMARKS
GRAND FORKS    FAIR      47  42  83 W7        29.96F
GRAND FORKS AF FAIR      48  41  77 W7        29.97F
GRAND CITY NWS NOT AVBL
BUXTON         NOT AVBL
DEVILS LAKE    MOCLDY    49  40  71 NW16      30.01S
FARGO          FAIR      47  40  76 W9        29.99F
WAHPETON ARPT  FAIR      43  37  81 W8        30.02S
$$

 *****  WEATHER ACROSS CENTRAL AND WESTERN NORTH DAKOTA  *****

CITY           SKY/WX    TMP DP  RH WIND       PRES   REMARKS
JAMESTOWN      FAIR      47  40  76 W9        30.03F
BISMARCK       CLOUDY    51  40  65 NW10      30.11R
MINOT          FAIR      46  42  86 NW13      30.09R
MINOT AFB      FAIR      44  41  88 NW12      30.08S
GARRISON         N/A     48  43  82 NW12      30.10S
WILLISTON      FAIR      50  36  58 NW13      30.18R
DICKINSON      MOCLDY    44  31  60 W9        30.13S
HETTINGER      FAIR      38  30  73 NW6       30.19R
$$

 *****  OTHER OBSERVATIONS NORTHEAST NORTH DAKOTA  *****

CITY           SKY/WX    TMP DP  RH WIND       PRES   REMARKS
WALHALLA       NOT AVBL
LANGDON        CLOUDY    46  45  93 NW15      29.98S
CAVALIER       PTSUNNY   52  43  71 W10       29.95S
GRAFTON        CLOUDY    52  45  76 W10G22    29.97S
CANDO          NOT AVBL
FORT TOTTEN      N/A     51  40  67 NW7       29.95S
ROLLA            N/A     48  43  81 NW21      30.01S
RUGBY          NOT AVBL
 ***** THE ABOVE OBSERVATIONS ARE NON NWS ARE NOT QUALITY
        CONTROLLED AND MAY MIS-REPORT RAIN FOR SNOW...
$$

 *****  OTHER OBSERVATIONS SOUTHEAST NORTH DAKOTA *****

CITY           SKY/WX    TMP DP  RH WIND       PRES   REMARKS
COOPERSTOWN    PTSUNNY   48  41  76 W12       30.01F
VALLEY CITY    FAIR      46  41  81 W8        30.03F
OAKES          NOT AVBL
GWINNER        SUNNY     46  41  81 W7        30.04S
SHEYENNE NWR     N/A     44  40  85 W7        29.95S
BUFFALO        NOT AVBL
WYNDMERE       NOT AVBL
 ***** THE ABOVE OBSERVATIONS ARE NON NWS ARE NOT QUALITY
       CONTROLLED AND MAY MIS-REPORT RAIN FOR SNOW...
$$

  *****  WEATHER ACROSS NORTHERN MINNESOTA  *****

CITY           SKY/WX    TMP DP  RH WIND       PRES   REMARKS
FLAG ISLAND    CLOUDY    54  48  82 W12       29.86S
WARROAD        CLOUDY    50  46  87 W7        29.90S
ROSEAU           N/A     52  46  82 W10       29.90F
HALLOCK        CLOUDY    52  45  76 NW8       29.93S
THF RVR FALLS  CLOUDY    52  43  71 W8        29.95S
HALSTAD        NOT AVBL
FOSSTON        CLOUDY    50  41  71 W10       29.95F
BAUDETTE       CLOUDY    50  49  96 W8        29.87F
WASKISH        CLOUDY    54  46  76 W12G18    29.90S
CROOKSTON      FAIR      48  43  81 W8        29.97R
$$
  *****  WEATHER ACROSS CENTRAL AND WEST MINNESOTA  *****

CITY           SKY/WX    TMP DP  RH WIND       PRES   REMARKS
BEMIDJI        FAIR      46  40  80 W10       29.93S
PARK RAPIDS    FAIR      47  38  71 NW5       29.95S
WADENA         CLOUDY    50  39  66 W5        29.97S
DETROIT LAKES  FAIR      50  39  66 W9        29.99S
MOORHEAD       FAIR      46  39  76 W7        30.00F
FERGUS FALLS   FAIR      45  39  81 W7        30.00S
ELBOW LAKE     FAIR      46  41  84 NW5       30.02S
MORRIS MN      FAIR      48  43  81 W8        30.01F
STAPLES        FAIR      46  39  76 W6        29.97S
WHEATON        FAIR      52  41  66 W8        30.05S
$$
  *****  WEATHER ELSEWHERE ACROSS MINNESOTA  *****

CITY           SKY/WX    TMP DP  RH WIND       PRES   REMARKS
DULUTH         MOCLDY    52  49  89 NW10      29.85S
INTRNTL FALLS  CLOUDY    53  50  89 W8        29.85S
ELY            DRIZZLE   52  52 100 W7        29.83S
CLOQUET        CLOUDY    54  46  76 W8        29.87F
BRAINERD       FAIR      53  42  66 W9        29.95S
HIBBING        CLOUDY    52  46  80 NW10G17   29.87F
ALEXANDRIA     FAIR      51  43  74 W12       30.01S
SAINT CLOUD    FAIR      51  44  77 W6        29.96S
MINNEAPOLIS    MOCLDY    59  46  62 NW10      29.95S
$$

  *****  WEATHER ACROSS SOUTH DAKOTA  *****

CITY           SKY/WX    TMP DP  RH WIND       PRES   REMARKS
SIOUX FALLS    FAIR      51  43  74 W7        30.11S
BROOKINGS      FAIR      46  41  82 W6        30.10S
WATERTOWN      FAIR      50  41  71 W6        30.07F
HURON          FAIR      46  42  86 SW5       30.12S
SISSETON         N/A     50  40  68 W9        30.03F
ABERDEEN       FAIR      41  39  93 SW7       30.09S
MITCHELL       FAIR      50  40  68 W6        30.14S
PIERRE         FAIR      49  40  71 SW9       30.14S
MOBRIDGE       FAIR      43  38  82 CALM      30.09F
RAPID CITY     FAIR      48  29  47 NW9       30.25S
$$

  *****  SOME WEATHER IN NEARBY STATES *****

CITY           SKY/WX    TMP DP  RH WIND       PRES   REMARKS
GLASGOW MT     FAIR      49  31  49 N5        30.21R
GREAT FALLS MT CLOUDY    56  39  53 E5        30.31S
CHEYENNE WY    CLOUDY    53  30  41 E8        30.35F
SCOTTSBLUFF NE CLOUDY    55  37  50 CALM      30.31R
OMAHA NE       FAIR      55  48  77 N3        30.13S
DES MOINES IA  FAIR      57  50  77 W5        30.06R
DAVENPORT IA   FAIR      60  55  83 NW10      29.97R
CHICAGO IL     FAIR      64  55  72 W12       29.87S
EAU CLAIRE WI  MOCLDY    56  52  86 W6        29.90S
LA CROSSE WI   FAIR      65  52  62 NW13      29.92R
$$

  *****  SOME NATIONAL WEATHER *****

CITY           SKY/WX    TMP DP  RH WIND       PRES   REMARKS
LA GUARDIA NY  CLOUDY    75  72  90 SW7       29.59F
RALEIGH NC     LGT RAIN  78  75  90 SW14      29.84R
ATLANTA GA     MOCLDY    72  71  97 SW7       29.97F
NEW ORLEANS LA FAIR      79  78  97 SW5       29.98R
OKLAHOMA CITY  MOCLDY    72  52  49 NE16      30.07S
ALBUQUERQUE NM FAIR      72  53  51 E24G33    30.19R
SALT LAKE CITY FAIR      68  39  34 W3        30.14S
LOS ANGELES CA CLOUDY    61  60  97 W10       29.91F FOG
BOISE ID       FAIR      61  38  42 SE6       30.12S
SEATTLE WA     FAIR      67  47  48 N10       30.15S
$$

*** WEATHER ACROSS MANITOBA...SASKATCHEWAN AND ONTARIO ***
                ***ONTARIO***

CITY           SKY/WX    TMP DP  RH WIND       PRES   REMARKS
GERALDTON      PTCLDY    48  48 100 NW2       29.74R
THUNDER BAY    CLOUDY    55  54  94 SW5       29.75S
SIOUX LOOKOUT  CLOUDY    54  52  94 NW5       29.78F
TORONTO        MOCLDY    64  54  68 NW10      29.63S
BIG TROUT LK   CLOUDY    43  39  87 N6        29.89R
PICKLE LAKE    NOT AVBL
DRYDEN         LGT RAIN  52  52 100 W8        29.80S
KENORA         LGT RAIN  50  50 100 W8        29.84F
$$
                *** MANITOBA***

CITY           SKY/WX    TMP DP  RH WIND       PRES   REMARKS
BRANDON        MOCLDY    43  41  93 NW8       30.02R
DAUPHIN        LGT RAIN  48  43  81 NW10      30.02S
ISLAND LAKE    PTCLDY    45  37  76 N10G18    29.98S
PILOT MOUND      N/A     46  43  87 NW12        N/A
THE PAS        LGT RAIN  48  45  87 NW12G20   30.10S
THOMPSON       CLOUDY    45  39  81 N2        30.06S
WINNIPEG       PTCLDY    46  45  93 W7        29.92S
LYNN LAKE      CLOUDY    46  41  81 NW6       30.13R
CHURCHILL      MOCLDY    48  39  71 W5        30.02S
GILLAM         MOCLDY    37  36  93 CALM      30.04R
$$
                ***SASKATCHEWAN***

CITY           SKY/WX    TMP DP  RH WIND       PRES   REMARKS
ESTEVAN        PTCLDY    43  39  87 NW14      30.14S
KINDERSLEY     PTCLDY    45  39  81 CALM      30.23R
LLOYDMINSTER   CLEAR     45  41  87 W5        30.22S
PRINCE ALBERT  FOG       36  34  93 W3        30.24R VSB 1
REGINA         CLEAR     37  36  93 NW8       30.19S
YORKTON        CLOUDY    45  41  87 NW14G20   30.11S


USA.gov is the U.S. government's official web portal to all federal, state and local government web resources and services.